2021-05-09 00:07:46 r, 20.93m,0000000001Hz,0001270294c,0000002.757s, 017.4C,00002191
2021-05-09 00:17:49 r, 20.93m,0000000000Hz,0001272472c,0000002.761s, 017.0C,00002191
2021-05-09 00:27:47 r, 20.93m,0000000001Hz,0001275551c,0000002.768s, 016.7C,00002191
2021-05-09 00:37:46 r, 20.94m,0000000001Hz,0001281031c,0000002.780s, 016.7C,00002191
2021-05-09 00:47:47 r, 20.94m,0000000000Hz,0001287813c,0000002.795s, 016.4C,00002191
2021-05-09 00:57:49 r, 20.94m,0000000000Hz,0001292433c,0000002.805s, 016.4C,00002191
2021-05-09 01:07:46 r, 20.96m,0000000000Hz,0001303219c,0000002.828s, 016.1C,00002191
2021-05-09 01:17:48 r, 20.97m,0000000000Hz,0001312107c,0000002.847s, 016.1C,00002191
2021-05-09 01:27:47 r, 20.97m,0000000000Hz,0001321265c,0000002.867s, 015.7C,00002191
2021-05-09 01:37:46 r, 20.97m,0000000000Hz,0001323094c,0000002.871s, 015.7C,00002191
2021-05-09 01:47:49 r, 20.97m,0000000001Hz,0001314930c,0000002.854s, 015.4C,00002191
2021-05-09 01:57:47 r, 20.97m,0000000000Hz,0001311927c,0000002.847s, 015.4C,00002191
2021-05-09 02:07:46 r, 20.97m,0000000001Hz,0001311134c,0000002.845s, 015.4C,00002191
2021-05-09 02:17:49 r, 20.96m,0000000001Hz,0001307017c,0000002.836s, 015.1C,00002191
2021-05-09 02:27:47 r, 20.96m,0000000001Hz,0001305300c,0000002.833s, 015.1C,00002191
2021-05-09 02:37:46 r, 20.96m,0000000000Hz,0001306919c,0000002.836s, 014.8C,00002191
2021-05-09 02:47:47 r, 20.96m,0000000000Hz,0001302884c,0000002.827s, 014.8C,00002191
2021-05-09 02:57:48 r, 20.96m,0000000000Hz,0001295325c,0000002.811s, 014.5C,00002191
2021-05-09 03:07:46 r, 20.94m,0000000001Hz,0001285384c,0000002.789s, 014.1C,00002191
2021-05-09 03:17:48 r, 20.93m,0000000000Hz,0001269406c,0000002.755s, 014.1C,00002191
2021-05-09 03:27:47 r, 20.91m,0000000000Hz,0001246330c,0000002.705s, 014.1C,00002191
2021-05-09 03:37:46 r, 20.90m,0000000000Hz,0001239885c,0000002.691s, 013.8C,00002191
2021-05-09 03:47:47 r, 20.87m,0000000001Hz,0001199704c,0000002.604s, 013.8C,00002191
2021-05-09 03:57:49 r, 20.79m,0000000001Hz,0001117852c,0000002.426s, 013.5C,00002191
2021-05-09 04:07:46 r, 20.61m,0000000001Hz,0000946461c,0000002.054s, 013.5C,00002191
2021-05-09 04:17:49 r, 20.22m,0000000001Hz,0000667260c,0000001.448s, 013.5C,00002191
2021-05-09 04:27:47 r, 19.58m,0000000001Hz,0000367544c,0000000.798s, 013.2C,00002191
2021-05-09 04:37:46 r, 18.68m,0000000002Hz,0000162227c,0000000.352s, 013.2C,00002191
2021-05-09 04:47:55 r, 17.61m,0000000007Hz,0000060630c,0000000.132s, 013.2C,00002191
2021-05-09 04:57:47 r, 16.32m,0000000024Hz,0000018553c,0000000.040s, 012.8C,00002191
2021-05-09 05:07:46 r, 14.65m,0000000114Hz,0000003994c,0000000.009s, 012.8C,00002191
2021-05-09 05:17:47 r, 12.88m,0000000596Hz,0000000000c,0000000.000s, 012.5C,00002191
2021-05-09 05:27:48 r, 11.17m,0000002889Hz,0000000000c,0000000.000s, 012.5C,00002191
2021-05-09 05:37:46 r, 09.61m,0000012061Hz,0000000000c,0000000.000s, 012.2C,00002191
2021-05-09 05:47:48 r, 08.37m,0000038136Hz,0000000000c,0000000.000s, 012.2C,00002191
2021-05-09 05:57:47 r, 07.45m,0000088636Hz,0000000000c,0000000.000s, 012.2C,00002191
2021-05-09 06:07:46 r, 06.79m,0000162048Hz,0000000000c,0000000.000s, 012.5C,00002191
2021-05-09 06:17:49 r, 06.34m,0000245165Hz,0000000000c,0000000.000s, 012.2C,00002191
2021-05-09 06:27:47 r, 06.02m,0000332478Hz,0000000000c,0000000.000s, 012.5C,00002191
2021-05-09 06:37:46 r, 00.00m,0000416210Hz,0000000000c,0000000.000s, 013.2C,00002191
2021-05-09 06:47:49 r, 00.00m,0000491988Hz,0000000000c,0000000.000s, 013.8C,00002191
2021-05-09 06:57:47 r, 00.00m,0000559825Hz,0000000000c,0000000.000s, 014.5C,00002191
2021-05-09 07:07:46 r, 00.00m,0000597206Hz,0000000000c,0000000.000s, 015.4C,00002191
2021-05-09 07:17:49 r, 00.00m,0000597122Hz,0000000000c,0000000.000s, 016.1C,00002191
2021-05-09 07:27:48 r, 00.00m,0000597009Hz,0000000000c,0000000.000s, 017.0C,00002191
2021-05-09 07:37:46 r, 00.00m,0000596942Hz,0000000000c,0000000.000s, 017.7C,00002191
2021-05-09 07:47:49 r, 00.00m,0000596830Hz,0000000000c,0000000.000s, 019.0C,00002191
2021-05-09 07:57:47 r, 00.00m,0000596763Hz,0000000000c,0000000.000s, 019.9C,00002191
2021-05-09 08:07:46 r, 00.00m,0000596642Hz,0000000000c,0000000.000s, 020.9C,00002191
2021-05-09 08:17:47 r, 00.00m,0000596501Hz,0000000000c,0000000.000s, 022.2C,00002191
2021-05-09 08:27:50 r, 00.00m,0000596339Hz,0000000000c,0000000.000s, 023.5C,00002191
2021-05-09 08:37:46 r, 00.00m,0000596290Hz,0000000000c,0000000.000s, 024.8C,00002191
2021-05-09 08:47:56 r, 00.00m,0000596165Hz,0000000000c,0000000.000s, 025.7C,00002191
2021-05-09 08:57:47 r, 00.00m,0000596024Hz,0000000000c,0000000.000s, 026.7C,00002191
2021-05-09 09:07:48 r, 00.00m,0000595826Hz,0000000000c,0000000.000s, 028.0C,00002191
2021-05-09 09:17:49 r, 00.00m,0000595857Hz,0000000000c,0000000.000s, 028.6C,00002191
2021-05-09 09:27:47 r, 00.00m,0000595629Hz,0000000000c,0000000.000s, 029.9C,00002191
2021-05-09 09:37:47 r, 00.00m,0000595556Hz,0000000000c,0000000.000s, 030.6C,00002191
2021-05-09 09:47:47 r, 00.00m,0000595362Hz,0000000000c,0000000.000s, 031.5C,00002191
2021-05-09 09:57:48 r, 00.00m,0000595241Hz,0000000000c,0000000.000s, 032.2C,00002191
2021-05-09 10:07:47 r, 00.00m,0000595164Hz,0000000000c,0000000.000s, 032.5C,00002191
2021-05-09 10:17:48 r, 00.00m,0000595136Hz,0000000000c,0000000.000s, 033.5C,00002191
2021-05-09 10:27:48 r, 00.00m,0000595090Hz,0000000000c,0000000.000s, 033.8C,00002191
2021-05-09 10:37:46 r, 00.00m,0000594915Hz,0000000000c,0000000.000s, 034.4C,00002191
2021-05-09 10:47:47 r, 00.00m,0000594789Hz,0000000000c,0000000.000s, 035.1C,00002191
2021-05-09 10:57:49 r, 00.00m,0000594757Hz,0000000000c,0000000.000s, 035.4C,00002191
2021-05-09 11:07:47 r, 00.00m,0000594602Hz,0000000000c,0000000.000s, 036.0C,00002191
2021-05-09 11:17:49 r, 00.00m,0000594598Hz,0000000000c,0000000.000s, 036.7C,00002191
2021-05-09 11:27:47 r, 00.00m,0000594451Hz,0000000000c,0000000.000s, 037.0C,00002191
2021-05-09 11:37:46 r, 00.00m,0000594453Hz,0000000000c,0000000.000s, 036.7C,00002191
2021-05-09 11:47:47 r, 00.00m,0000594589Hz,0000000000c,0000000.000s, 036.4C,00002191
2021-05-09 11:57:48 r, 00.00m,0000594337Hz,0000000000c,0000000.000s, 037.7C,00002191
2021-05-09 12:07:47 r, 00.00m,0000594130Hz,0000000000c,0000000.000s, 038.6C,00002191
2021-05-09 12:17:48 r, 00.00m,0000594488Hz,0000000000c,0000000.000s, 037.3C,00002191
2021-05-09 12:27:47 r, 00.00m,0000594720Hz,0000000000c,0000000.000s, 035.4C,00002191
2021-05-09 12:37:46 r, 00.00m,0000594408Hz,0000000000c,0000000.000s, 037.0C,00002191
2021-05-09 12:47:47 r, 00.00m,0000594032Hz,0000000000c,0000000.000s, 039.6C,00002191
2021-05-09 12:57:47 r, 00.00m,0000593858Hz,0000000000c,0000000.000s, 040.2C,00002191
2021-05-09 13:07:47 r, 00.00m,0000594055Hz,0000000000c,0000000.000s, 039.3C,00002191
2021-05-09 13:17:49 r, 00.00m,0000594033Hz,0000000000c,0000000.000s, 039.9C,00002191
2021-05-09 13:27:47 r, 00.00m,0000593983Hz,0000000000c,0000000.000s, 039.9C,00002191
2021-05-09 13:37:47 r, 00.00m,0000593966Hz,0000000000c,0000000.000s, 039.9C,00002191
2021-05-09 13:47:49 r, 00.00m,0000593976Hz,0000000000c,0000000.000s, 039.6C,00002191
2021-05-09 13:57:47 r, 00.00m,0000593930Hz,0000000000c,0000000.000s, 039.9C,00002191
2021-05-09 14:07:48 r, 00.00m,0000593931Hz,0000000000c,0000000.000s, 039.9C,00002191
2021-05-09 14:17:47 r, 00.00m,0000593966Hz,0000000000c,0000000.000s, 039.9C,00002191
2021-05-09 14:27:48 r, 00.00m,0000593971Hz,0000000000c,0000000.000s, 039.9C,00002191
2021-05-09 14:37:47 r, 00.00m,0000594005Hz,0000000000c,0000000.000s, 039.6C,00002191
2021-05-09 14:47:48 r, 00.00m,0000594036Hz,0000000000c,0000000.000s, 039.9C,00002191
2021-05-09 14:57:47 r, 00.00m,0000594115Hz,0000000000c,0000000.000s, 039.6C,00002191
2021-05-09 15:07:47 r, 00.00m,0000594143Hz,0000000000c,0000000.000s, 039.3C,00002191
2021-05-09 15:17:50 r, 00.00m,0000594112Hz,0000000000c,0000000.000s, 039.0C,00002191
2021-05-09 15:27:48 r, 00.00m,0000594203Hz,0000000000c,0000000.000s, 038.6C,00002191
2021-05-09 15:37:47 r, 00.00m,0000594254Hz,0000000000c,0000000.000s, 038.0C,00002191
2021-05-09 15:47:49 r, 00.00m,0000594348Hz,0000000000c,0000000.000s, 037.7C,00002191
2021-05-09 15:57:47 r, 00.00m,0000594374Hz,0000000000c,0000000.000s, 037.3C,00002191
2021-05-09 16:07:47 r, 00.00m,0000594462Hz,0000000000c,0000000.000s, 037.0C,00002191
2021-05-09 16:17:48 r, 00.00m,0000594571Hz,0000000000c,0000000.000s, 036.4C,00002191
2021-05-09 16:27:48 r, 00.00m,0000594569Hz,0000000000c,0000000.000s, 036.0C,00002191
2021-05-09 16:37:47 r, 00.00m,0000594683Hz,0000000000c,0000000.000s, 036.0C,00002191
2021-05-09 16:47:47 r, 00.00m,0000594654Hz,0000000000c,0000000.000s, 035.7C,00002191
2021-05-09 16:57:49 r, 00.00m,0000594796Hz,0000000000c,0000000.000s, 035.1C,00002191
2021-05-09 17:07:47 r, 00.00m,0000594895Hz,0000000000c,0000000.000s, 034.8C,00002191
2021-05-09 17:17:47 r, 00.00m,0000594838Hz,0000000000c,0000000.000s, 034.4C,00002191
2021-05-09 17:27:49 r, 00.00m,0000595086Hz,0000000000c,0000000.000s, 033.5C,00002191
2021-05-09 17:37:49 r, 00.00m,0000595198Hz,0000000000c,0000000.000s, 033.1C,00002191
2021-05-09 17:47:47 r, 00.00m,0000595202Hz,0000000000c,0000000.000s, 032.5C,00002191
2021-05-09 17:57:50 r, 00.00m,0000595237Hz,0000000000c,0000000.000s, 031.5C,00002191
2021-05-09 18:07:48 r, 00.00m,0000595231Hz,0000000000c,0000000.000s, 031.2C,00002191
2021-05-09 18:17:47 r, 00.00m,0000595292Hz,0000000000c,0000000.000s, 030.2C,00002191
2021-05-09 18:27:48 r, 00.00m,0000595488Hz,0000000000c,0000000.000s, 029.6C,00002191
2021-05-09 18:37:50 r, 00.00m,0000595600Hz,0000000000c,0000000.000s, 029.0C,00002191
2021-05-09 18:47:48 r, 00.00m,0000595732Hz,0000000000c,0000000.000s, 028.3C,00002191
2021-05-09 18:57:49 r, 00.00m,0000595760Hz,0000000000c,0000000.000s, 027.7C,00002191
2021-05-09 19:07:48 r, 00.00m,0000595904Hz,0000000000c,0000000.000s, 027.0C,00002191
2021-05-09 19:17:47 r, 00.00m,0000596075Hz,0000000000c,0000000.000s, 025.7C,00002191
2021-05-09 19:27:50 r, 00.00m,0000596208Hz,0000000000c,0000000.000s, 025.1C,00002191
2021-05-09 19:37:47 r, 00.00m,0000596255Hz,0000000000c,0000000.000s, 024.4C,00002191
2021-05-09 19:47:47 r, 00.00m,0000560925Hz,0000000000c,0000000.000s, 023.5C,00002191
2021-05-09 19:57:47 r, 00.00m,0000497939Hz,0000000000c,0000000.000s, 022.8C,00002191
2021-05-09 20:07:48 r, 00.00m,0000432268Hz,0000000000c,0000000.000s, 022.2C,00002191
2021-05-09 20:17:49 r, 05.93m,0000358690Hz,0000000000c,0000000.000s, 021.2C,00002191
2021-05-09 20:27:48 r, 06.20m,0000280374Hz,0000000000c,0000000.000s, 020.9C,00002191
2021-05-09 20:37:47 r, 06.58m,0000197798Hz,0000000000c,0000000.000s, 020.6C,00002191
2021-05-09 20:47:47 r, 07.11m,0000120717Hz,0000000000c,0000000.000s, 019.9C,00002191
2021-05-09 20:57:47 r, 07.88m,0000059848Hz,0000000000c,0000000.000s, 019.3C,00002191
2021-05-09 21:07:50 r, 08.95m,0000022201Hz,0000000000c,0000000.000s, 018.6C,00002191
2021-05-09 21:17:47 r, 10.38m,0000005971Hz,0000000000c,0000000.000s, 018.0C,00002191
2021-05-09 21:27:49 r, 12.03m,0000001311Hz,0000000000c,0000000.000s, 017.7C,00002191
2021-05-09 21:37:48 r, 13.78m,0000000261Hz,0000000000c,0000000.000s, 017.7C,00002191
2021-05-09 21:47:47 r, 15.57m,0000000050Hz,0000009284c,0000000.020s, 017.4C,00002191
2021-05-09 21:57:49 r, 17.05m,0000000013Hz,0000036438c,0000000.079s, 017.0C,00002191
2021-05-09 22:07:47 r, 18.20m,0000000004Hz,0000104725c,0000000.227s, 016.7C,00002191
2021-05-09 22:17:47 r, 19.17m,0000000001Hz,0000254640c,0000000.553s, 016.7C,00002191
2021-05-09 22:27:48 r, 19.94m,0000000001Hz,0000512612c,0000001.112s, 016.4C,00002191
2021-05-09 22:37:49 r, 20.44m,0000000001Hz,0000816835c,0000001.773s, 016.4C,00002191
2021-05-09 22:47:47 r, 20.72m,0000000001Hz,0001050582c,0000002.280s, 016.1C,00002191
2021-05-09 22:57:48 r, 20.84m,0000000001Hz,0001178322c,0000002.557s, 016.1C,00002191
2021-05-09 23:07:49 r, 20.90m,0000000000Hz,0001235577c,0000002.681s, 015.7C,00002191
2021-05-09 23:17:47 r, 20.92m,0000000001Hz,0001265419c,0000002.746s, 015.7C,00002191
2021-05-09 23:27:47 r, 20.94m,0000000000Hz,0001281102c,0000002.780s, 015.4C,00002191
2021-05-09 23:37:49 r, 20.94m,0000000001Hz,0001292152c,0000002.804s, 015.4C,00002191
2021-05-09 23:47:47 r, 20.95m,0000000001Hz,0001301201c,0000002.824s, 015.1C,00002191
2021-05-09 23:57:50 r, 20.96m,0000000000Hz,0001302729c,0000002.827s, 015.1C,00002191
